Wind_Speed
62 63 64 62 58 54 55 56 55 55 56 57 57 58 56 56 56 52 51 54 51 47 48 49 50 50 44 37 38 40 39 40 39 36 32 29 29 29 28 27 25 25 26 28 31 32 32 31 30 31 31 30 29 28 28 28 27 27 26 26 25 26 26 23 23 23 22 21 22 21 20 20 20 19 19 20 21 21 21 22 22 21 21 21 21 22
64 67 65 59 56 56 57 58 57 55 55 57 59 59 59 58 55 51 52 56 53 52 51 51 53 53 48 40 38 41 41 41 41 37 33 30 30 30 29 27 26 27 27 28 30 32 33 32 32 32 31 30 29 29 29 28 28 28 28 27 26 28 27 25 25 24 23 23 23 22 21 21 20 19 19 20 20 21 22 23 23 23 23 23 23 23
63 65 62 57 57 59 60 61 62 60 58 60 61 63 63 61 58 56 58 59 55 54 54 54 55 55 52 44 39 41 42 42 40 37 35 33 32 32 30 29 29 28 27 28 30 32 33 34 34 33 32 31 31 30 29 28 29 29 29 28 28 29 28 27 26 25 25 25 25 23 22 21 20 19 19 19 20 21 23 24 24 24 24 24 23 23
61 59 56 56 57 59 60 61 64 65 66 66 64 63 63 62 61 61 62 64 61 56 55 56 58 57 55 49 43 40 41 42 40 37 37 37 36 34 32 31 31 29 28 28 30 32 34 35 36 35 34 33 32 31 30 30 30 30 29 29 29 29 29 28 27 27 26 26 26 25 23 21 20 19 19 18 20 22 24 24 24 24 24 24 24 24
56 55 54 54 56 58 59 62 65 67 68 70 67 64 62 61 62 63 64 67 66 61 58 58 60 60 57 54 47 42 43 43 41 38 38 39 38 36 34 32 31 30 29 29 31 33 35 36 37 37 36 35 34 33 32 33 32 31 30 29 30 30 29 28 28 29 28 27 26 26 25 22 21 20 19 19 21 24 24 24 24 24 24 24 24 25
50 51 54 55 56 57 58 59 64 67 67 68 67 64 63 62 62 64 66 67 67 65 62 60 63 64 60 57 52 47 46 47 46 43 40 40 39 37 35 34 34 33 32 32 33 34 36 37 38 39 38 37 36 35 34 35 35 33 33 33 33 33 32 31 30 31 31 29 27 27 26 24 23 22 20 21 24 26 25 24 25 25 25 25 25 26
52 48 51 55 55 54 56 56 57 61 64 65 65 63 63 62 63 66 67 68 67 66 65 64 65 68 66 61 56 52 48 48 50 47 43 42 41 39 38 37 36 36 35 36 36 36 37 38 38 39 39 38 37 37 36 36 36 36 36 36 36 35 35 34 34 34 34 32 30 29 28 26 25 23 23 25 27 28 27 26 26 26 26 26 26 27
61 52 48 51 54 53 53 54 53 55 59 63 63 62 63 62 64 68 68 69 68 66 67 67 66 70 71 64 58 56 52 50 52 49 45 44 44 43 42 40 39 38 38 38 38 38 39 39 39 40 40 39 38 37 37 37 37 38 37 37 37 37 36 36 37 37 37 37 34 32 31 29 27 26 27 29 30 29 29 28 28 27 27 27 28 28
70 65 55 49 53 53 49 49 51 54 58 60 60 61 62 64 65 66 67 68 68 68 69 67 66 70 72 68 62 60 55 51 51 51 48 47 46 44 43 42 41 41 41 41 40 40 41 41 41 42 41 40 39 38 37 38 38 38 38 38 38 38 37 37 37 39 39 40 39 37 35 33 30 30 30 32 33 32 32 31 30 30 30 30 30 30
77 77 70 60 56 53 48 45 44 49 56 57 57 59 60 63 65 64 65 64 64 68 68 64 64 69 71 69 66 63 59 53 50 52 52 49 45 44 45 45 44 43 43 43 42 42 43 43 43 43 43 42 42 40 39 39 38 38 37 38 38 38 38 37 37 38 40 41 42 41 39 37 35 34 34 35 36 35 35 35 34 33 33 33 33 32
78 79 80 77 66 54 53 55 47 43 51 55 55 57 58 59 61 63 64 62 62 67 64 58 59 65 69 69 66 64 62 57 53 53 54 50 46 46 46 46 46 46 45 45 44 44 44 44 45 45 45 45 45 44 42 40 38 37 37 38 38 38 38 38 37 38 39 41 42 42 42 41 40 38 37 37 37 38 38 38 38 37 37 37 36 35
77 79 82 83 77 64 59 62 55 45 46 53 57 58 58 59 60 62 62 62 67 68 60 54 56 63 68 69 66 64 62 60 55 52 52 52 50 48 48 48 48 49 48 46 45 45 46 45 46 46 47 47 47 47 45 42 39 39 39 39 38 38 38 39 39 39 40 41 41 42 43 43 43 42 41 40 40 40 40 40 41 41 41 40 40 39
75 77 80 82 84 79 72 69 64 53 44 48 56 60 62 62 61 62 63 63 67 66 58 54 57 63 66 65 64 63 61 58 54 50 51 53 54 51 50 51 51 51 50 49 48 48 47 47 47 47 48 48 49 48 47 44 42 42 42 42 40 40 41 40 40 40 41 42 42 42 42 42 43 43 43 42 42 43 43 42 43 43 44 44 43 42
74 74 78 82 86 87 86 79 69 58 47 43 49 54 60 63 61 63 65 66 66 63 57 54 58 64 61 58 60 60 57 52 47 46 47 50 52 52 53 53 53 53 54 54 53 51 50 50 49 48 48 49 50 50 48 46 45 44 43 43 42 42 42 41 41 41 41 42 43 43 42 42 43 43 42 43 43 44 44 44 44 44 45 46 45 45
75 77 78 80 82 86 88 83 73 65 59 52 48 48 52 56 55 56 58 61 64 64 60 57 63 66 55 48 52 53 51 47 42 42 44 45 48 51 52 54 54 55 56 57 56 55 55 54 52 51 50 51 51 51 50 48 48 47 45 45 44 44 43 43 42 42 42 43 43 44 43 43 44 44 43 43 43 43 43 44 44 44 45 46 47 47
74 78 77 74 76 80 83 83 80 78 76 72 66 60 54 48 48 49 50 51 53 56 62 65 68 66 53 48 52 53 54 53 49 47 46 46 48 49 51 53 55 56 56 56 57 57 57 56 55 55 54 53 53 52 52 51 50 49 48 47 47 47 46 45 44 44 44 44 44 45 44 45 45 45 45 44 43 43 43 44 44 44 44 45 46 47
67 71 73 73 74 75 78 82 83 84 86 84 81 73 59 49 50 50 47 46 43 45 55 64 67 64 57 56 59 61 64 63 57 51 48 48 49 50 51 53 54 55 55 55 56 56 57 57 56 56 56 56 55 55 54 54 53 52 51 50 49 49 49 48 47 45 45 45 46 46 46 46 47 46 45 44 44 43 44 44 44 43 43 43 43 45
52 58 63 69 73 74 76 80 84 87 88 87 84 79 69 63 62 58 52 50 47 47 52 58 65 65 61 61 62 63 64 62 56 51 49 50 50 51 53 54 53 52 53 53 54 56 57 57 56 56 56 56 56 56 56 55 54 53 52 52 51 51 51 50 49 47 47 47 47 48 48 49 49 47 46 45 44 44 44 44 44 43 43 42 42 43
45 47 50 56 65 72 77 79 82 85 85 82 81 79 77 75 72 68 65 60 54 52 52 53 58 63 63 59 57 58 56 54 53 51 52 53 53 54 54 56 56 54 53 53 54 55 55 55 56 56 56 57 56 57 57 56 55 54 53 52 52 52 52 52 51 50 49 49 49 49 50 51 51 50 48 47 46 46 45 45 44 44 43 43 43 43
48 46 45 47 53 62 72 78 81 83 83 80 78 77 79 79 76 75 74 69 62 59 55 50 49 55 59 55 53 55 53 51 54 54 53 53 53 53 50 50 54 54 52 52 52 54 55 54 54 54 55 57 58 58 57 56 56 55 54 53 52 52 52 52 52 51 51 51 51 51 51 53 53 53 52 51 50 48 47 46 46 46 45 45 45 45
51 49 48 47 49 54 62 71 78 80 79 76 74 74 77 79 78 77 76 74 71 67 64 58 51 49 49 48 51 55 53 53 57 55 50 47 48 48 43 40 44 47 47 46 47 50 53 54 54 54 53 55 57 58 58 58 58 57 56 55 55 54 53 53 53 52 52 52 52 52 53 54 55 55 55 54 53 52 50 49 48 48 47 47 47 47
59 55 52 50 50 51 53 58 66 72 73 71 70 71 73 75 75 74 75 77 76 74 72 69 65 52 39 39 45 49 52 53 55 55 48 42 43 43 39 34 35 39 42 43 43 44 46 49 52 53 54 54 55 56 57 58 59 59 59 58 57 57 56 56 55 54 53 53 53 54 54 55 56 56 57 56 56 55 55 53 52 51 50 49 48 48
71 65 61 58 55 54 53 54 57 61 64 65 66 67 68 71 73 72 74 76 75 75 71 71 74 59 38 36 40 41 47 48 50 54 48 40 39 38 37 35 33 36 39 41 42 42 41 42 44 48 51 53 55 54 54 56 58 59 59 59 59 58 58 57 56 56 55 55 54 55 55 56 56 57 57 57 57 57 57 57 56 55 53 51 50 50
77 73 69 65 63 62 61 61 62 61 62 62 62 64 64 66 69 67 67 66 64 68 65 64 73 62 45 43 44 39 42 44 46 51 46 38 37 36 36 37 37 38 39 40 41 41 41 40 39 42 45 48 52 53 53 54 55 56 57 58 58 58 57 57 57 57 57 56 56 56 56 57 57 58 58 58 58 58 58 58 58 57 55 54 53 52
78 77 75 71 68 67 66 67 67 67 66 65 64 65 65 64 63 59 58 57 57 61 60 57 64 65 60 58 54 47 46 45 45 48 45 39 36 36 37 39 40 40 40 40 41 41 42 40 39 40 40 42 46 48 50 51 52 54 54 55 56 56 57 57 57 57 57 57 57 57 58 58 59 59 59 59 59 59 59 58 58 58 56 55 54 53
76 76 76 74 72 72 71 70 70 68 68 69 69 68 67 65 63 59 57 57 56 55 55 53 54 60 67 67 62 59 57 53 50 49 47 45 41 39 40 40 41 42 42 43 43 43 43 42 41 40 40 41 43 44 46 46 47 49 51 52 54 54 55 56 56 57 58 58 59 59 60 60 61 61 61 61 61 60 60 58 57 57 56 55 55 54
70 70 70 69 70 70 70 69 67 66 66 67 68 69 66 63 61 57 55 57 55 50 52 54 49 51 64 70 65 64 63 60 57 54 51 50 49 47 45 44 44 45 46 47 47 47 48 47 46 45 44 45 45 44 46 47 46 47 47 48 50 51 52 53 54 55 56 58 59 60 62 62 62 62 62 63 63 63 62 60 58 57 55 55 55 56
68 67 67 66 65 65 65 65 66 65 64 65 66 67 66 65 62 59 59 59 55 50 51 51 46 46 61 71 69 63 62 64 64 62 58 55 54 55 54 52 52 52 53 55 54 53 53 52 52 52 50 50 50 49 50 50 50 49 48 47 47 47 47 47 49 51 53 56 58 60 63 64 64 64 64 64 65 65 65 63 61 59 57 57 57 58
69 68 67 66 65 63 62 63 64 64 63 63 64 65 65 66 65 65 66 64 59 57 55 51 47 48 58 68 67 60 58 62 65 66 66 63 61 63 63 60 59 59 58 59 59 59 57 57 57 57 56 56 55 56 56 55 55 55 53 51 50 49 47 46 46 48 49 51 54 56 59 61 63 64 64 65 66 66 67 67 66 64 63 63 63 62
67 67 66 65 65 65 63 63 63 64 65 64 64 65 65 65 64 65 66 65 62 61 59 56 57 59 61 65 67 62 56 55 55 57 60 61 63 68 72 69 67 65 61 59 59 60 60 60 60 59 60 60 59 60 60 60 59 57 56 55 55 55 54 52 51 51 50 50 51 53 55 56 58 59 61 62 64 65 66 68 68 68 69 69 69 69
66 65 66 66 66 66 65 64 64 65 67 67 65 66 66 66 66 66 67 67 67 68 66 63 65 67 65 64 67 68 63 58 56 55 54 55 58 65 72 74 74 72 68 66 65 64 64 64 64 63 62 61 60 61 62 62 61 60 59 59 59 60 60 59 57 57 56 55 54 54 54 54 54 54 55 56 58 59 61 63 64 66 67 69 70 71
64 64 65 65 66 67 66 65 65 65 66 68 68 67 66 66 67 67 67 67 69 71 70 69 69 70 67 63 64 69 69 66 67 67 64 61 60 61 66 70 72 72 72 72 71 70 69 69 69 68 67 66 64 63 64 65 64 62 61 60 61 62 63 63 62 61 61 60 59 58 57 57 56 54 54 54 54 55 55 56 58 59 61 63 65 67
58 59 61 62 63 64 64 63 64 64 66 69 69 66 65 65 65 66 66 66 67 69 71 72 73 72 69 66 66 70 73 72 72 73 72 68 66 66 66 66 69 72 73 74 74 73 72 71 71 71 71 71 69 68 69 70 69 66 63 61 62 63 64 65 64 64 65 64 64 63 62 61 60 59 57 57 56 56 55 55 56 56 57 59 60 62
54 55 56 59 60 61 62 62 62 64 68 71 69 67 67 68 68 69 70 69 69 70 71 73 74 73 71 71 71 72 74 74 73 73 73 72 71 72 70 68 70 72 73 74 74 74 74 73 73 73 73 72 71 69 69 71 73 72 70 66 64 63 65 67 67 67 67 67 67 67 66 66 66 65 64 63 61 60 58 58 58 58 58 59 60 61
54 54 55 57 58 58 61 62 63 66 69 68 67 67 70 71 72 73 74 73 72 73 74 74 74 74 74 73 73 73 74 74 74 74 75 76 76 77 76 75 74 73 72 73 74 74 73 73 73 74 74 74 74 72 70 71 72 74 74 72 69 65 64 66 68 70 70 70 70 69 69 69 69 69 70 69 68 65 63 63 62 62 61 61 61 63
53 53 54 54 55 57 59 62 65 67 67 65 65 67 68 70 71 72 74 74 73 73 73 73 73 73 73 72 72 72 73 74 77 78 77 78 80 81 81 80 78 75 73 74 74 74 75 75 73 72 72 74 76 76 74 73 73 74 75 75 74 70 67 66 67 69 71 71 71 71 71 71 71 71 72 73 73 72 70 69 67 66 66 63 62 62
51 52 53 54 56 57 59 62 64 65 66 65 64 64 64 64 64 65 68 69 67 67 67 68 68 67 67 66 66 66 66 70 76 78 77 80 84 84 82 81 80 79 78 76 75 75 75 76 75 73 73 73 74 76 76 75 75 75 76 77 76 75 72 69 68 69 70 72 72 73 72 72 72 72 72 73 74 74 73 73 72 71 70 68 65 63
51 53 53 54 56 56 58 60 61 64 66 62 59 57 56 58 59 60 65 67 64 61 62 62 62 61 59 58 58 58 59 62 67 71 73 78 83 83 82 83 82 80 80 79 78 77 75 74 74 75 74 74 73 74 74 74 74 75 76 78 78 77 75 74 72 71 71 72 73 74 74 74 73 72 72 72 72 73 73 73 73 73 72 70 69 68
52 52 52 54 56 57 59 60 61 63 58 47 45 47 48 50 52 56 64 64 54 50 51 52 54 55 54 55 55 55 57 60 60 62 65 71 75 77 80 83 82 80 80 79 79 79 77 75 73 73 74 74 74 73 72 72 73 74 75 77 78 78 77 75 75 74 73 73 74 75 75 76 76 75 73 73 72 72 73 73 73 73 73 72 71 72
51 52 53 56 56 56 58 59 57 53 40 26 30 38 39 41 47 54 59 53 41 39 43 47 52 55 55 56 56 56 58 61 60 59 60 64 67 70 74 78 79 80 80 79 78 78 78 76 75 73 73 74 74 73 72 70 70 72 73 74 75 77 77 77 77 76 75 75 76 76 76 77 78 78 77 76 75 74 74 73 73 73 73 74 73 74
51 52 53 54 53 53 55 54 51 44 29 20 27 36 37 41 49 54 53 45 39 43 47 50 56 59 56 57 58 57 59 61 60 60 60 61 62 65 68 71 74 76 78 79 78 78 77 77 76 75 74 74 73 73 72 71 70 71 71 72 72 73 74 76 77 77 78 78 78 79 78 78 78 78 78 78 78 77 76 75 75 74 73 73 74 74
50 51 53 52 51 51 52 52 51 43 32 28 34 39 42 47 52 52 50 48 49 52 53 56 60 60 58 60 60 60 62 62 62 62 62 61 62 63 64 67 69 72 74 76 77 77 76 76 76 75 75 75 75 74 73 73 72 72 72 72 72 72 72 72 73 75 77 78 80 81 81 81 80 79 78 79 80 81 80 80 79 78 77 76 75 75
50 51 52 51 50 50 52 54 52 42 34 33 38 43 48 52 53 53 54 56 57 56 57 60 61 61 61 63 63 63 63 63 64 64 63 62 62 61 63 64 66 69 72 75 76 77 76 76 76 76 76 76 76 76 76 75 75 75 75 75 75 75 74 74 74 74 75 76 78 80 82 83 83 82 81 80 79 80 81 81 81 80 79 78 77 76
51 51 50 50 50 53 56 55 48 39 36 39 43 48 53 55 54 55 57 58 59 59 60 61 61 63 64 65 66 67 66 66 65 64 63 61 60 60 61 62 64 67 71 73 75 76 76 76 77 77 78 78 77 77 77 77 78 78 78 78 78 78 78 77 77 77 76 77 78 79 81 83 84 85 85 83 81 79 78 79 80 80 79 78 77 76
50 49 50 51 53 54 55 53 47 43 44 47 49 53 57 57 56 57 59 60 60 61 61 63 65 67 69 70 71 70 69 67 64 61 59 58 57 58 59 59 61 65 67 70 72 73 74 75 75 76 77 76 75 75 74 74 75 76 77 77 78 78 79 79 79 79 79 79 79 80 81 82 83 83 84 84 83 80 78 78 79 79 80 79 79 78
50 51 52 54 55 56 55 52 50 49 50 51 53 56 59 60 60 61 61 61 62 63 64 65 66 65 65 65 63 62 62 60 57 54 53 52 52 54 56 57 58 60 62 65 67 68 69 70 71 72 72 71 71 71 69 67 68 68 69 69 70 70 72 73 73 74 75 77 78 80 81 81 81 80 79 80 80 80 78 77 76 76 77 78 78 79
52 53 55 56 56 57 56 52 51 53 53 54 56 58 60 61 62 61 61 61 62 64 64 63 61 60 59 56 54 53 53 52 51 50 50 49 49 50 52 54 57 57 59 60 62 63 64 64 64 65 66 66 67 67 65 63 62 61 61 60 59 59 59 60 62 63 64 66 69 72 74 75 75 74 73 71 71 71 72 71 70 70 71 72 73 75
53 54 57 57 57 58 57 55 55 56 56 56 57 60 61 62 61 60 61 62 62 61 60 58 57 58 59 57 54 53 52 52 51 50 47 46 48 49 49 51 53 55 57 58 60 61 61 59 58 57 59 61 62 63 62 59 55 53 53 53 52 51 50 51 51 52 53 56 58 60 63 65 66 67 66 65 64 63 63 63 63 63 64 66 68 70
56 56 57 58 58 58 57 56 56 57 58 59 61 63 64 63 62 62 63 63 62 59 57 56 56 57 59 58 57 56 55 55 55 53 49 46 47 48 49 49 50 52 54 56 57 58 59 58 57 55 55 56 57 57 56 54 50 48 47 46 46 46 45 45 45 46 47 49 51 53 55 57 58 59 61 61 61 61 60 60 59 59 60 63 66 68
59 59 58 58 58 57 55 55 56 59 61 63 65 67 68 67 66 65 65 63 61 58 56 55 55 55 57 58 58 57 57 58 59 59 56 52 50 49 50 50 51 52 52 54 55 55 55 55 56 57 57 56 54 53 53 52 50 49 47 45 45 44 44 45 45 46 47 48 49 50 52 53 54 55 56 57 58 58 59 60 61 60 59 60 62 65
58 58 57 56 56 56 57 58 60 63 66 69 71 72 72 70 69 68 66 63 60 58 57 56 55 54 55 56 57 57 57 58 60 62 61 59 55 53 52 52 53 54 54 55 56 56 55 54 54 56 57 56 53 52 51 51 51 51 49 48 47 46 46 46 47 47 48 49 49 50 51 52 53 54 55 55 55 55 55 56 58 60 61 61 61 63
Wind_Direction
228 231 232 232 233 230 227 228 231 234 236 238 240 241 241 242 243 245 247 248 245 242 243 246 247 246 244 238 239 243 244 246 246 244 242 242 243 243 244 247 247 248 248 248 251 255 258 258 258 259 259 260 260 261 260 260 261 260 259 260 260 262 262 263 265 266 268 271 274 277 281 283 286 291 292 292 291 290 289 288 287 287 285 284 285 285
227 230 233 235 234 231 228 228 230 231 234 237 239 240 240 240 241 243 246 246 245 244 243 245 247 247 246 240 238 243 245 246 247 246 245 243 243 243 242 243 246 247 248 249 250 253 256 257 257 258 259 261 261 261 261 260 261 261 262 262 262 262 263 263 263 266 269 270 272 275 278 281 284 287 288 290 290 289 287 284 283 284 284 286 286 287
225 228 231 233 231 229 228 228 231 232 234 236 237 238 239 238 240 242 244 245 244 245 244 245 246 247 248 244 239 242 246 247 246 246 247 244 241 242 241 242 244 247 249 250 251 252 254 256 257 258 258 259 261 262 263 263 262 262 263 264 265 265 266 267 267 268 270 271 271 272 273 276 279 282 285 287 287 285 282 281 283 285 286 287 288 288
225 226 229 230 230 229 227 226 228 230 232 234 235 237 238 239 240 241 243 244 243 244 245 246 247 246 247 246 241 240 244 246 245 244 245 245 242 241 241 242 243 246 249 251 252 252 253 255 257 258 258 258 260 261 263 263 263 263 265 266 267 268 269 270 270 270 268 268 270 270 270 272 276 277 279 282 282 280 279 281 283 284 285 286 287 287
222 224 226 229 230 230 228 226 226 227 230 233 234 236 238 239 240 241 243 244 243 244 246 248 249 247 246 247 243 239 241 244 245 244 245 245 245 244 242 243 244 245 247 250 252 252 253 254 256 258 258 258 259 260 261 262 262 264 265 266 267 269 270 270 270 269 267 267 268 269 269 270 271 272 274 276 276 275 277 280 280 281 283 283 284 283
213 215 220 225 228 228 228 227 227 228 229 233 235 236 238 240 241 242 243 244 245 245 245 248 251 248 246 247 244 240 241 244 245 245 246 247 246 247 247 246 246 246 247 250 251 253 254 254 255 256 258 259 259 259 259 260 262 263 263 263 265 267 269 270 269 269 268 267 267 268 268 268 267 269 272 272 270 271 273 276 277 279 280 280 280 280
212 211 213 218 224 227 229 229 228 228 229 233 235 235 237 239 241 242 243 244 245 246 245 245 248 248 246 246 244 242 241 244 247 246 245 248 249 249 251 250 249 248 248 249 250 252 254 255 256 256 257 259 259 259 259 260 261 262 262 262 263 265 268 269 270 270 270 269 267 267 267 267 268 269 270 269 269 271 272 273 274 276 277 278 278 277
218 216 214 213 217 222 227 230 230 230 231 233 234 235 236 237 240 242 243 244 243 245 245 243 245 247 246 245 244 244 242 242 246 248 246 248 251 252 253 252 251 250 249 249 249 251 253 255 256 257 258 258 259 259 260 260 261 261 262 262 263 265 266 268 269 269 270 270 269 267 267 267 268 269 268 268 268 270 272 273 274 275 276 277 276 276
223 224 223 216 215 217 220 227 231 231 232 234 235 237 238 237 239 241 243 244 244 245 245 242 243 246 246 245 244 244 243 241 245 249 248 248 251 254 255 254 252 251 251 250 249 250 252 254 256 257 258 259 259 259 260 260 261 261 262 263 264 266 266 267 268 268 268 269 269 269 268 267 266 266 267 268 268 270 272 273 274 275 276 275 275 275
227 228 228 226 219 213 214 223 229 232 233 234 236 239 240 239 239 241 243 244 245 246 244 241 243 246 247 246 246 245 244 242 243 247 248 248 251 253 254 255 254 253 252 252 251 249 250 252 254 256 258 259 260 260 259 259 260 262 264 265 265 266 266 266 267 267 266 266 267 268 268 268 267 265 265 266 269 270 271 272 272 273 273 274 275 275
227 228 230 231 227 216 216 224 228 233 234 232 235 238 240 242 241 241 243 244 246 246 244 242 244 248 249 247 246 246 244 242 241 245 249 250 251 253 254 256 256 255 253 252 252 251 251 252 253 255 257 258 260 261 261 260 261 262 263 264 265 265 265 266 267 267 267 267 267 268 268 268 268 266 265 265 268 269 270 272 272 272 272 273 274 274
226 227 228 230 229 223 221 225 225 229 231 227 231 236 238 241 243 243 243 244 246 246 246 245 245 247 248 246 246 246 245 243 241 243 248 251 251 252 255 256 256 257 256 255 254 253 253 253 253 255 257 258 260 261 262 262 262 262 262 262 263 265 265 266 267 268 270 271 271 270 270 269 268 267 267 267 267 268 269 270 272 272 272 272 272 273
226 227 227 228 229 228 228 230 228 226 225 222 227 233 236 239 242 244 243 244 247 248 247 245 244 246 246 246 248 248 247 246 245 244 247 251 253 253 254 256 256 258 258 257 256 256 256 256 255 256 257 258 259 260 261 261 261 261 261 262 262 263 265 267 268 269 270 273 274 273 272 271 269 269 269 269 268 268 268 269 270 271 272 273 273 274
227 228 228 228 229 231 233 235 233 227 224 223 225 229 234 237 240 243 244 245 247 248 246 244 246 247 245 245 249 251 251 250 249 248 249 251 254 255 255 255 256 257 258 259 259 258 257 257 256 256 256 258 259 260 260 259 259 259 260 261 261 262 263 265 266 267 268 270 272 273 273 272 271 271 270 269 269 268 269 269 269 271 272 273 273 274
230 229 229 228 229 231 235 238 237 231 228 229 228 229 232 234 238 243 246 247 249 249 246 244 247 248 246 247 251 252 253 253 251 252 253 253 254 254 255 256 256 256 256 258 258 258 257 257 257 256 256 257 258 259 259 259 259 259 259 259 260 260 261 263 264 265 266 268 269 271 272 272 272 272 272 271 270 270 270 270 270 270 271 272 273 273
232 232 231 230 230 231 235 238 237 235 235 233 233 234 232 231 236 242 245 248 250 251 248 244 246 248 247 249 251 253 256 257 258 257 255 253 252 253 253 253 254 255 255 256 256 256 257 257 257 256 256 256 257 258 258 258 258 259 259 260 260 261 262 263 264 265 265 266 268 269 270 270 271 272 272 271 271 271 271 271 270 270 271 271 272 273
230 233 232 231 231 231 234 237 237 239 241 239 238 238 235 230 235 240 242 243 244 248 250 249 249 248 247 248 251 255 258 260 260 258 253 250 249 250 252 251 251 252 253 255 256 256 256 256 256 256 256 256 256 257 257 258 259 260 260 261 261 262 263 264 264 264 264 265 266 267 268 268 269 269 270 270 270 270 271 271 272 272 271 270 271 272
226 231 232 231 231 231 232 236 237 239 242 243 243 241 238 237 238 240 241 240 239 242 247 251 253 251 248 248 251 254 257 259 259 256 253 251 249 249 251 253 254 253 252 253 255 256 256 256 255 255 255 255 256 256 257 258 259 260 260 261 261 262 262 263 264 263 263 263 263 265 266 266 267 268 269 269 270 269 269 270 271 271 271 271 271 272
224 227 230 230 231 231 233 236 238 239 241 245 246 243 242 244 242 241 242 242 240 241 243 246 251 252 248 246 249 251 252 256 258 256 255 254 254 253 251 253 256 256 254 254 253 254 255 255 256 255 254 254 254 255 256 257 258 258 259 259 259 260 261 262 262 262 261 261 261 262 263 264 265 266 267 268 268 268 268 268 268 269 270 271 272 272
225 226 228 229 230 232 234 235 237 239 242 246 248 247 246 247 246 245 246 246 245 246 244 242 244 250 251 246 246 248 248 251 254 256 257 258 258 258 255 253 254 256 255 253 252 252 252 253 255 255 255 254 254 254 255 255 255 255 256 256 257 257 258 259 259 260 260 261 261 261 262 263 263 264 265 266 267 267 267 267 267 268 269 270 271 272
225 226 227 229 230 232 234 234 235 238 243 247 249 249 248 248 248 249 250 250 250 250 248 245 241 244 251 250 246 245 246 249 252 255 258 259 257 258 258 253 251 252 253 252 252 251 251 252 253 255 255 255 254 253 254 254 254 254 254 254 255 256 257 257 258 258 259 260 260 261 261 262 262 263 264 265 266 266 266 266 266 267 267 268 270 272
229 228 227 229 231 233 235 235 235 238 243 247 250 250 250 250 251 254 254 253 253 254 252 252 248 242 242 248 246 243 244 248 252 254 255 255 253 254 254 249 244 246 248 250 250 251 251 251 252 254 255 255 255 254 253 253 253 254 254 255 255 255 256 256 257 258 258 258 258 259 259 260 261 262 263 264 265 265 266 266 266 266 267 268 270 272
232 231 231 232 234 236 239 240 240 241 244 247 250 251 252 252 253 255 258 257 257 258 256 257 256 245 230 239 245 242 244 247 250 252 252 249 246 246 248 243 237 237 240 244 247 247 248 248 248 251 253 254 256 256 255 255 255 255 255 255 256 256 256 256 256 257 257 257 257 257 258 259 260 261 262 263 264 264 265 265 265 266 267 268 269 271
232 233 234 236 237 238 241 243 244 246 248 248 250 253 254 256 257 259 261 262 261 261 260 261 261 248 228 234 242 241 244 244 245 249 248 244 238 236 240 239 233 232 234 238 242 243 245 246 247 248 250 252 255 256 255 255 256 256 256 256 256 256 256 256 256 257 257 257 257 257 258 258 259 259 260 261 262 263 263 264 265 265 266 267 268 270
231 234 236 238 239 239 240 241 242 244 248 249 251 254 256 259 261 261 263 264 264 264 262 264 265 254 239 238 240 240 244 242 241 245 246 243 238 233 234 236 234 235 237 238 240 242 243 245 248 251 253 254 256 258 258 257 256 256 256 257 257 257 257 257 257 257 257 257 257 257 257 257 257 258 259 259 260 261 262 262 263 264 265 266 267 269
232 235 237 238 240 241 241 242 243 244 247 249 250 254 257 260 261 262 264 264 265 266 265 264 266 258 249 245 240 239 243 244 242 244 246 246 245 241 237 237 239 241 243 245 246 246 246 245 246 249 254 258 260 262 263 262 261 259 257 257 257 258 258 258 258 258 258 258 258 258 258 257 257 257 258 258 259 259 260 261 261 262 264 265 267 268
232 235 237 238 241 243 244 245 245 245 247 248 249 252 256 259 260 261 262 262 262 264 263 262 264 260 254 251 246 242 245 246 244 244 247 250 252 251 248 246 246 248 250 252 252 253 252 251 251 251 253 258 262 263 265 266 266 264 261 259 259 258 258 259 260 260 260 260 260 260 260 259 258 258 258 258 258 258 259 259 260 262 263 266 268 269
233 235 237 239 241 242 244 246 245 245 246 248 248 249 252 255 258 259 259 260 260 260 258 259 261 261 259 256 255 253 252 251 248 245 247 250 253 255 256 254 254 253 254 256 256 256 256 256 257 257 257 257 259 261 263 264 265 266 264 263 261 261 261 261 261 261 261 262 262 262 262 262 261 261 260 259 259 259 259 259 260 261 263 266 269 271
235 237 238 240 241 242 244 246 247 246 246 248 248 248 250 251 254 256 257 259 259 257 256 256 256 260 261 258 259 261 260 259 256 252 252 253 254 255 256 257 257 257 257 258 258 259 258 257 257 258 258 258 258 259 260 261 263 264 265 265 264 265 265 265 265 264 263 264 264 264 264 264 264 264 263 262 261 261 260 261 262 263 265 267 269 271
236 237 238 240 241 242 242 245 247 247 247 248 248 249 250 250 251 252 254 257 258 258 259 259 258 260 261 258 257 260 263 262 260 257 256 257 257 257 256 255 256 257 257 257 257 258 259 258 257 258 258 259 258 258 259 260 261 263 265 266 266 267 268 268 269 268 267 267 267 267 267 267 268 268 268 267 267 265 264 264 265 265 267 269 271 272
235 237 238 239 241 241 242 244 246 248 248 248 249 248 249 250 250 251 252 254 258 261 264 265 264 263 262 261 258 258 259 260 259 257 256 255 256 257 257 256 256 257 258 258 257 258 259 259 260 259 260 261 261 261 261 260 261 261 263 265 265 265 267 268 269 270 270 270 269 269 269 269 270 270 271 271 271 271 270 269 269 268 269 269 270 271
234 236 237 239 241 241 242 244 246 248 249 249 248 248 249 251 253 254 256 256 258 261 264 265 267 266 266 267 264 258 256 258 260 260 259 256 256 258 258 258 258 259 260 260 260 260 260 261 262 262 262 262 262 262 263 263 262 261 261 261 261 262 264 265 267 269 270 271 271 270 269 269 269 270 271 272 272 273 273 273 273 273 272 271 271 270
235 237 239 241 243 244 244 246 248 249 250 249 248 249 252 255 256 257 257 257 257 259 262 264 266 268 270 271 268 261 256 256 259 261 263 263 262 260 258 258 259 260 259 260 260 261 261 261 262 262 262 262 261 261 262 264 264 263 261 259 259 260 261 262 264 265 267 268 269 270 270 270 269 269 270 271 271 271 272 273 273 274 275 275 275 274
236 239 241 243 245 246 246 248 250 250 250 250 250 252 254 255 256 257 257 257 257 259 262 263 264 266 267 268 268 265 259 256 257 261 264 268 268 265 262 259 259 260 260 260 260 261 261 261 261 260 261 261 261 260 260 262 263 263 262 260 259 259 260 261 262 262 262 263 264 266 267 269 270 270 270 270 269 269 269 270 271 271 272 274 276 277
233 236 239 242 244 245 246 248 249 249 251 252 252 252 253 254 255 257 258 257 258 260 262 263 263 264 266 268 268 267 263 259 257 259 261 265 268 268 266 263 262 262 262 262 262 262 262 261 260 259 258 258 260 260 260 260 262 263 264 262 260 259 258 260 261 261 261 261 261 262 262 264 266 268 269 269 269 269 268 267 267 268 268 269 271 273
232 234 237 240 242 244 245 246 248 251 252 252 251 252 253 255 257 259 259 258 259 261 263 264 265 265 267 269 269 269 267 264 260 257 257 261 265 266 266 265 265 265 264 263 262 262 262 262 261 259 257 257 257 258 259 259 260 262 263 263 262 260 258 258 260 261 262 261 261 261 261 261 263 264 265 267 269 269 269 267 266 267 267 267 267 268
233 235 237 240 242 243 245 247 250 253 252 250 251 253 255 258 260 261 262 261 259 261 263 265 268 269 270 271 271 270 269 266 262 257 255 258 262 264 265 265 265 266 266 266 264 262 262 262 262 261 259 257 256 256 257 258 258 258 259 261 261 261 259 258 258 260 261 262 262 262 262 262 262 263 263 265 266 268 267 267 266 266 266 266 266 265
233 235 237 240 243 244 246 248 251 253 253 253 255 257 258 260 260 261 263 261 259 260 265 268 270 271 271 270 269 268 266 265 263 259 256 257 259 262 264 265 264 264 266 267 267 266 264 263 262 262 261 260 258 257 256 256 257 256 256 257 259 260 260 260 259 258 259 261 263 264 263 263 263 263 263 264 265 266 265 265 264 264 264 264 264 263
234 237 239 241 243 245 247 250 252 255 258 259 259 258 257 257 258 259 261 261 260 262 266 268 269 268 267 266 264 264 263 263 263 261 258 258 259 259 260 262 263 263 263 264 265 266 267 266 265 264 264 263 262 260 258 257 257 256 256 256 257 258 260 260 260 259 258 259 260 262 264 264 264 264 264 264 265 265 265 265 265 265 265 264 264 263
234 237 239 241 244 246 249 250 252 255 258 256 253 254 254 254 255 257 260 263 266 265 263 264 264 264 263 264 264 264 265 265 265 262 260 259 260 259 258 260 261 262 263 263 263 263 265 266 267 266 266 265 265 264 263 261 259 259 258 257 256 257 258 259 260 260 260 259 259 260 261 263 264 265 266 266 266 266 266 266 267 267 267 266 265 265
235 237 240 242 244 246 248 250 252 252 254 252 250 253 254 254 255 257 262 267 266 260 259 260 261 262 263 265 267 267 268 268 268 266 263 261 259 259 259 260 260 261 262 263 263 262 263 264 265 266 266 266 266 265 265 264 263 261 260 260 259 258 257 258 258 259 259 260 260 260 260 260 261 262 264 266 267 267 268 268 269 269 269 268 268 267
235 237 240 241 242 244 247 250 249 251 259 262 256 255 256 256 257 261 264 265 261 259 259 260 262 265 266 267 267 268 268 268 268 267 266 263 261 259 259 259 260 261 261 262 262 262 261 262 263 264 265 266 266 266 265 264 264 263 262 262 261 260 259 259 258 258 258 259 260 261 262 262 262 261 262 263 265 266 267 268 268 268 269 269 269 269
237 240 242 242 242 244 247 248 248 257 271 267 257 257 258 257 259 262 263 262 262 263 264 265 267 269 269 268 269 269 268 268 267 267 267 265 263 260 258 257 257 258 259 260 261 261 260 260 261 262 263 264 264 264 264 264 263 263 263 262 262 261 261 260 259 259 258 259 260 261 262 263 264 264 263 263 263 263 264 264 264 265 265 266 267 268
238 241 243 244 244 246 247 248 252 262 267 259 254 256 257 256 258 260 261 263 265 266 267 269 270 272 272 272 272 271 270 270 270 269 267 265 263 261 260 258 256 255 256 257 258 259 259 259 259 260 260 261 262 262 262 262 261 262 262 262 261 261 261 261 260 259 259 258 259 260 261 262 264 265 265 264 263 262 261 261 261 261 262 263 264 265
240 242 246 247 248 249 249 251 254 256 255 255 257 257 257 259 260 260 261 264 266 267 269 270 272 273 273 272 272 271 271 271 270 269 267 265 264 262 260 259 258 257 256 257 258 259 259 258 258 259 259 260 262 262 262 262 261 261 261 261 261 261 261 261 261 260 259 259 258 259 260 261 262 264 265 266 266 264 262 260 259 259 259 260 262 263
242 244 246 248 249 250 250 252 254 255 256 258 258 258 260 262 262 262 263 265 267 269 271 272 272 271 270 270 269 269 268 266 265 265 265 264 263 261 259 258 258 258 258 258 259 259 259 259 259 259 260 262 264 265 265 264 264 263 262 262 263 263 262 262 262 262 261 260 260 259 260 261 262 264 266 267 268 268 268 266 264 261 260 260 261 262
242 244 246 247 248 250 252 252 254 257 258 258 258 260 261 262 263 265 266 268 270 272 272 271 269 266 264 264 264 262 261 261 261 262 263 263 263 261 258 254 254 255 256 257 257 258 259 260 260 261 262 263 266 267 268 268 269 268 267 266 266 265 264 263 263 263 263 263 262 262 262 263 265 266 268 269 271 271 271 271 270 268 266 264 263 262
243 245 247 248 249 251 253 254 255 256 258 258 259 260 261 262 264 266 268 270 272 271 270 268 266 263 260 260 260 259 258 259 260 262 262 262 261 261 259 255 253 253 253 254 255 256 257 259 261 264 265 266 266 268 269 269 269 269 266 264 263 263 263 263 264 265 266 267 267 268 268 268 269 270 271 272 273 274 274 273 272 271 269 267 265 264
245 246 248 250 251 253 255 257 257 257 257 258 259 261 262 264 266 266 268 269 269 267 266 266 264 261 258 258 259 259 257 257 259 259 260 261 261 260 260 258 256 255 254 255 255 256 257 258 261 264 265 265 264 264 264 264 265 266 265 263 262 264 265 266 267 268 268 269 271 272 273 274 274 275 275 275 275 275 274 274 273 271 270 267 266 265
249 250 251 252 254 255 256 257 257 258 260 261 262 263 264 265 265 265 265 265 263 263 265 265 263 260 258 258 260 260 257 256 257 258 259 262 262 261 260 259 259 258 258 259 259 260 260 260 261 263 263 262 260 260 261 263 267 271 271 269 268 268 268 268 268 268 268 269 269 270 272 274 275 276 276 276 276 275 273 272 272 272 271 269 267 266
252 252 252 252 254 255 255 256 257 260 263 264 265 265 265 264 263 263 262 260 259 262 265 265 263 262 260 260 261 260 258 257 257 258 260 262 262 262 261 260 260 260 260 261 262 263 263 262 262 262 263 263 263 264 266 269 272 273 273 272 271 270 269 268 268 268 268 269 269 270 270 271 272 273 274 274 274 274 273 271 270 270 271 271 269 267
Height
5752 5751 5753 5759 5768 5777 5780 5782 5785 5788 5789 5789 5790 5792 5795 5796 5798 5803 5804 5804 5810 5814 5813 5814 5815 5816 5822 5830 5831 5831 5833 5834 5836 5839 5841 5843 5844 5844 5845 5846 5848 5848 5848 5848 5847 5847 5847 5849 5849 5849 5850 5851 5852 5852 5852 5853 5853 5853 5853 5853 5854 5852 5852 5853 5853 5853 5853 5853 5852 5853 5853 5853 5853 5853 5853 5852 5852 5851 5851 5850 5849 5849 5849 5849 5848 5848
5747 5746 5751 5761 5768 5773 5775 5776 5779 5783 5785 5785 5785 5787 5790 5793 5796 5800 5798 5798 5804 5807 5809 5810 5810 5811 5816 5825 5828 5827 5829 5831 5833 5837 5839 5841 5841 5841 5843 5844 5845 5845 5845 5845 5845 5845 5845 5845 5846 5846 5848 5849 5850 5850 5850 5851 5851 5851 5851 5851 5851 5850 5850 5851 5851 5851 5851 5850 5850 5850 5850 5850 5851 5851 5850 5850 5849 5849 5848 5847 5846 5846 5846 5847 5847 5846
5739 5742 5751 5759 5762 5765 5768 5772 5775 5778 5780 5779 5780 5782 5784 5789 5793 5793 5792 5794 5798 5801 5803 5804 5805 5807 5811 5819 5824 5824 5825 5827 5830 5834 5836 5838 5838 5838 5840 5841 5841 5842 5843 5843 5842 5842 5842 5842 5843 5843 5845 5846 5847 5848 5848 5849 5849 5848 5848 5849 5849 5848 5848 5849 5849 5849 5848 5847 5847 5847 5848 5848 5848 5848 5848 5847 5847 5846 5845 5844 5844 5844 5844 5844 5844 5844
5735 5742 5749 5752 5754 5758 5762 5766 5768 5771 5772 5771 5774 5778 5780 5785 5787 5788 5788 5788 5791 5795 5797 5799 5799 5802 5806 5812 5820 5822 5822 5823 5826 5830 5832 5833 5834 5835 5837 5838 5838 5840 5841 5841 5840 5840 5839 5839 5840 5840 5842 5843 5844 5845 5846 5846 5845 5845 5846 5846 5846 5846 5846 5846 5846 5846 5845 5845 5845 5845 5845 5845 5845 5845 5845 5845 5844 5843 5842 5842 5842 5842 5842 5842 5842 5841
5733 5740 5744 5745 5748 5751 5755 5758 5761 5763 5765 5765 5770 5774 5777 5781 5782 5783 5783 5781 5785 5791 5793 5795 5793 5796 5802 5807 5814 5819 5818 5819 5822 5825 5827 5829 5831 5833 5834 5835 5836 5837 5838 5837 5837 5836 5835 5836 5836 5837 5838 5839 5841 5842 5842 5842 5842 5843 5844 5843 5843 5842 5843 5843 5843 5842 5842 5842 5842 5842 5842 5843 5843 5842 5842 5842 5840 5839 5839 5839 5839 5839 5839 5839 5839 5838
5728 5732 5736 5739 5741 5745 5749 5752 5756 5758 5761 5763 5766 5771 5774 5777 5778 5778 5777 5777 5781 5785 5789 5791 5787 5790 5798 5802 5808 5814 5815 5815 5817 5820 5823 5825 5827 5829 5831 5833 5834 5834 5834 5834 5834 5833 5832 5833 5833 5833 5834 5835 5837 5838 5838 5839 5839 5840 5840 5839 5839 5839 5840 5840 5840 5839 5838 5839 5840 5839 5839 5840 5839 5840 5840 5839 5837 5835 5836 5836 5836 5836 5836 5836 5836 5835
5722 5726 5729 5732 5736 5741 5744 5748 5752 5755 5758 5759 5761 5765 5768 5772 5773 5772 5771 5772 5776 5780 5782 5785 5784 5785 5790 5796 5804 5809 5811 5813 5812 5816 5821 5821 5823 5826 5828 5830 5830 5830 5831 5830 5830 5830 5829 5829 5829 5829 5830 5832 5833 5834 5835 5835 5836 5836 5836 5836 5836 5836 5836 5837 5837 5836 5835 5836 5837 5837 5837 5837 5837 5837 5837 5835 5833 5833 5833 5833 5833 5832 5832 5832 5832 5832
5718 5723 5725 5729 5732 5735 5739 5744 5748 5751 5753 5754 5757 5760 5762 5766 5767 5766 5766 5767 5771 5774 5773 5779 5783 5780 5782 5792 5800 5802 5807 5810 5809 5813 5818 5818 5820 5822 5823 5825 5826 5826 5827 5826 5827 5826 5825 5825 5825 5825 5826 5827 5829 5830 5831 5831 5831 5832 5832 5832 5832 5832 5833 5833 5833 5833 5832 5832 5833 5834 5834 5834 5835 5835 5833 5832 5830 5830 5830 5830 5830 5829 5829 5829 5828 5828
5719 5720 5723 5728 5729 5729 5736 5741 5744 5747 5748 5750 5754 5756 5757 5760 5760 5761 5761 5761 5766 5766 5765 5774 5780 5775 5776 5787 5794 5796 5802 5807 5808 5810 5813 5815 5816 5817 5818 5819 5821 5822 5822 5822 5823 5823 5822 5822 5821 5821 5822 5823 5824 5826 5826 5827 5827 5828 5829 5829 5829 5829 5829 5830 5830 5829 5829 5829 5829 5830 5831 5831 5832 5831 5830 5828 5828 5827 5827 5827 5827 5826 5826 5825 5824 5824
5713 5714 5718 5722 5721 5725 5732 5735 5738 5742 5742 5746 5750 5751 5753 5754 5755 5757 5755 5758 5761 5757 5759 5772 5776 5771 5773 5781 5787 5791 5797 5804 5807 5806 5806 5811 5813 5813 5813 5814 5815 5816 5816 5817 5818 5819 5819 5819 5818 5817 5818 5818 5819 5821 5822 5822 5823 5824 5825 5826 5826 5826 5825 5825 5826 5826 5826 5825 5825 5825 5826 5827 5827 5827 5827 5825 5825 5825 5824 5823 5823 5823 5822 5821 5821 5821
5705 5710 5711 5711 5715 5723 5727 5728 5733 5736 5738 5743 5745 5746 5749 5749 5751 5753 5752 5756 5754 5747 5757 5772 5774 5769 5767 5773 5780 5785 5792 5799 5802 5802 5802 5806 5808 5807 5808 5809 5809 5810 5810 5812 5813 5814 5815 5815 5815 5814 5814 5814 5814 5816 5817 5818 5820 5821 5822 5822 5822 5822 5821 5821 5822 5822 5822 5821 5822 5822 5822 5823 5823 5823 5823 5822 5822 5821 5821 5820 5819 5819 5818 5817 5817 5817
5699 5703 5702 5705 5712 5719 5721 5721 5727 5731 5734 5738 5739 5743 5745 5745 5747 5747 5748 5750 5743 5742 5758 5770 5770 5762 5758 5766 5774 5779 5786 5792 5797 5801 5800 5800 5801 5803 5804 5803 5802 5803 5804 5807 5808 5809 5810 5810 5811 5811 5811 5811 5811 5811 5813 5815 5817 5817 5817 5818 5818 5818 5818 5818 5818 5818 5818 5817 5818 5818 5818 5818 5818 5818 5818 5819 5819 5818 5817 5817 5816 5815 5814 5813 5813 5813
5694 5698 5700 5704 5708 5712 5714 5714 5720 5727 5731 5733 5735 5739 5740 5740 5742 5740 5742 5742 5736 5742 5756 5763 5761 5752 5751 5764 5770 5773 5781 5786 5793 5798 5797 5795 5796 5798 5799 5797 5797 5798 5798 5800 5802 5804 5805 5805 5806 5807 5807 5807 5806 5807 5809 5811 5812 5812 5812 5813 5814 5814 5814 5814 5815 5815 5814 5814 5814 5814 5814 5814 5814 5814 5814 5815 5814 5813 5813 5813 5812 5811 5810 5809 5809 5809
5692 5695 5696 5698 5701 5706 5707 5710 5718 5725 5729 5731 5732 5736 5735 5735 5736 5733 5736 5736 5734 5741 5750 5756 5752 5741 5748 5764 5768 5770 5777 5782 5789 5793 5792 5793 5792 5792 5792 5791 5792 5793 5792 5794 5796 5798 5799 5799 5801 5801 5802 5802 5802 5802 5804 5805 5806 5807 5808 5808 5809 5810 5809 5810 5810 5810 5810 5810 5810 5810 5810 5810 5809 5809 5810 5810 5809 5809 5809 5808 5808 5807 5806 5805 5805 5805
5687 5686 5687 5694 5701 5706 5706 5711 5719 5722 5725 5727 5729 5730 5728 5730 5731 5729 5732 5731 5731 5737 5745 5749 5740 5732 5750 5767 5766 5768 5771 5775 5783 5786 5787 5789 5787 5786 5786 5786 5786 5786 5787 5788 5789 5791 5792 5793 5795 5796 5796 5797 5796 5797 5798 5799 5800 5801 5802 5803 5804 5804 5804 5805 5806 5806 5807 5807 5807 5806 5806 5806 5805 5805 5805 5805 5805 5804 5804 5804 5803 5803 5802 5802 5801 5800
5680 5679 5688 5699 5704 5706 5706 5708 5712 5713 5715 5717 5719 5719 5719 5726 5728 5725 5727 5729 5730 5732 5735 5738 5730 5731 5753 5764 5762 5764 5764 5767 5775 5779 5782 5783 5781 5780 5780 5780 5779 5779 5781 5782 5783 5784 5785 5786 5788 5789 5790 5791 5791 5791 5792 5793 5794 5795 5796 5797 5798 5798 5799 5800 5801 5802 5802 5802 5803 5803 5803 5802 5801 5801 5800 5800 5800 5800 5799 5799 5798 5799 5798 5797 5797 5796
5675 5678 5687 5695 5697 5701 5703 5703 5705 5705 5706 5708 5710 5712 5718 5725 5723 5720 5723 5726 5728 5725 5725 5729 5727 5733 5749 5756 5757 5759 5757 5761 5768 5771 5775 5775 5774 5775 5773 5772 5772 5774 5776 5777 5777 5777 5778 5780 5781 5781 5783 5783 5784 5785 5786 5787 5788 5790 5792 5792 5793 5793 5794 5795 5796 5797 5798 5798 5798 5798 5798 5797 5796 5796 5796 5796 5795 5795 5794 5794 5794 5794 5794 5793 5792 5791
5673 5675 5681 5687 5691 5697 5697 5695 5696 5697 5699 5700 5703 5709 5715 5716 5715 5717 5718 5719 5721 5720 5720 5724 5724 5731 5742 5748 5753 5755 5753 5756 5761 5764 5767 5767 5768 5769 5767 5765 5766 5768 5771 5771 5771 5771 5772 5772 5773 5774 5776 5776 5777 5779 5780 5782 5783 5785 5786 5787 5788 5788 5788 5789 5791 5792 5792 5792 5793 5793 5793 5792 5791 5791 5791 5791 5790 5790 5789 5789 5789 5789 5788 5788 5787 5787
5669 5671 5676 5681 5685 5688 5687 5686 5687 5689 5692 5693 5697 5704 5706 5705 5709 5712 5711 5712 5715 5715 5717 5720 5720 5723 5733 5743 5749 5749 5752 5754 5754 5757 5759 5759 5760 5760 5760 5761 5760 5761 5764 5765 5765 5766 5766 5766 5766 5767 5769 5770 5771 5772 5774 5777 5778 5779 5780 5781 5782 5782 5782 5783 5784 5785 5786 5786 5787 5787 5787 5787 5786 5786 5786 5786 5785 5784 5784 5784 5784 5784 5783 5783 5782 5781
5664 5667 5671 5676 5678 5679 5678 5679 5682 5686 5689 5690 5693 5697 5698 5700 5704 5705 5705 5708 5711 5710 5712 5716 5716 5715 5725 5740 5744 5744 5749 5751 5748 5750 5751 5750 5751 5751 5753 5755 5755 5754 5756 5757 5758 5759 5760 5760 5760 5761 5762 5763 5764 5766 5768 5770 5771 5772 5773 5774 5775 5775 5776 5777 5777 5778 5779 5780 5781 5781 5781 5781 5781 5781 5781 5781 5780 5780 5779 5779 5779 5779 5778 5777 5776 5776
5659 5663 5667 5670 5670 5670 5672 5677 5684 5687 5686 5685 5688 5690 5692 5696 5698 5697 5698 5701 5703 5705 5706 5710 5710 5713 5724 5735 5737 5738 5744 5744 5742 5744 5744 5744 5746 5745 5746 5748 5749 5750 5749 5749 5751 5752 5753 5755 5754 5755 5755 5756 5757 5759 5761 5762 5763 5764 5766 5767 5767 5768 5769 5770 5770 5772 5773 5774 5775 5775 5775 5775 5775 5775 5775 5775 5775 5775 5775 5774 5773 5773 5772 5772 5771 5771
5655 5659 5663 5664 5665 5667 5672 5677 5682 5680 5678 5680 5682 5684 5688 5690 5690 5690 5691 5694 5697 5699 5701 5703 5703 5711 5726 5730 5729 5734 5737 5736 5737 5738 5739 5739 5740 5740 5741 5742 5743 5744 5744 5744 5744 5745 5747 5748 5749 5749 5750 5749 5750 5752 5754 5755 5756 5757 5759 5760 5761 5762 5762 5763 5764 5765 5766 5768 5768 5769 5769 5769 5769 5769 5769 5769 5769 5769 5769 5768 5768 5767 5767 5767 5766 5766
5651 5656 5658 5659 5662 5666 5668 5671 5672 5671 5673 5676 5677 5679 5682 5682 5683 5685 5687 5690 5692 5691 5695 5696 5692 5707 5727 5727 5725 5729 5730 5731 5732 5731 5733 5735 5735 5735 5736 5737 5738 5738 5738 5738 5739 5739 5740 5742 5743 5744 5744 5743 5743 5746 5747 5748 5750 5751 5753 5753 5754 5755 5756 5757 5758 5759 5760 5761 5762 5762 5762 5763 5763 5763 5763 5763 5763 5763 5763 5762 5762 5762 5761 5762 5761 5760
5646 5650 5652 5653 5658 5661 5662 5664 5665 5666 5667 5669 5671 5675 5677 5677 5679 5682 5681 5682 5683 5682 5687 5686 5683 5703 5726 5724 5721 5725 5724 5726 5727 5724 5727 5729 5730 5732 5732 5733 5733 5732 5732 5733 5734 5735 5736 5737 5738 5738 5739 5739 5738 5740 5741 5742 5743 5744 5746 5747 5748 5749 5750 5751 5752 5753 5754 5755 5755 5756 5756 5756 5756 5756 5757 5757 5757 5757 5756 5756 5756 5756 5756 5756 5755 5755
5642 5644 5645 5648 5651 5653 5654 5655 5658 5660 5663 5667 5671 5673 5673 5673 5675 5675 5674 5674 5674 5674 5680 5679 5678 5699 5718 5716 5717 5721 5719 5720 5721 5719 5721 5723 5725 5728 5728 5728 5728 5727 5728 5729 5729 5731 5731 5732 5733 5733 5734 5734 5733 5734 5735 5736 5737 5738 5739 5740 5741 5742 5743 5744 5746 5747 5748 5749 5749 5750 5750 5749 5749 5749 5750 5750 5750 5750 5750 5750 5750 5750 5750 5749 5749 5749
5637 5637 5639 5641 5642 5645 5648 5651 5657 5663 5666 5667 5669 5668 5668 5669 5669 5669 5668 5667 5667 5670 5674 5672 5674 5690 5705 5707 5712 5716 5713 5713 5716 5715 5715 5718 5721 5723 5723 5723 5723 5723 5724 5724 5725 5726 5726 5727 5727 5728 5729 5728 5728 5729 5728 5730 5731 5731 5733 5733 5734 5735 5736 5737 5739 5740 5741 5742 5743 5743 5743 5743 5743 5743 5743 5743 5743 5744 5744 5744 5744 5744 5744 5743 5743 5743
5629 5630 5633 5636 5638 5642 5648 5651 5656 5661 5659 5659 5661 5663 5663 5663 5663 5664 5662 5660 5664 5667 5666 5667 5671 5680 5691 5699 5705 5709 5706 5706 5710 5711 5711 5713 5714 5716 5719 5720 5720 5719 5718 5718 5719 5720 5721 5722 5722 5723 5724 5723 5723 5723 5723 5723 5724 5724 5726 5726 5727 5728 5729 5731 5732 5734 5735 5736 5736 5737 5736 5736 5736 5737 5737 5737 5737 5737 5737 5738 5738 5738 5738 5737 5737 5737
5623 5625 5629 5633 5636 5642 5645 5645 5648 5651 5651 5652 5656 5658 5658 5657 5658 5658 5655 5656 5663 5661 5658 5665 5669 5670 5681 5694 5697 5699 5699 5699 5703 5708 5708 5708 5709 5709 5712 5714 5714 5714 5712 5712 5712 5713 5715 5716 5716 5717 5718 5718 5718 5717 5717 5717 5716 5717 5719 5720 5720 5721 5723 5725 5726 5727 5728 5729 5729 5729 5728 5728 5729 5730 5730 5730 5731 5731 5731 5731 5732 5732 5732 5732 5731 5731
5619 5622 5627 5630 5633 5638 5641 5639 5640 5645 5646 5646 5649 5652 5653 5653 5653 5652 5651 5654 5658 5654 5654 5663 5664 5663 5675 5688 5689 5690 5691 5692 5697 5702 5702 5703 5703 5701 5702 5704 5705 5705 5705 5704 5704 5705 5707 5708 5709 5709 5709 5710 5710 5710 5709 5710 5710 5711 5712 5713 5715 5715 5717 5719 5720 5720 5721 5722 5722 5721 5721 5721 5722 5722 5723 5723 5724 5724 5725 5725 5725 5726 5726 5726 5725 5725
5615 5619 5624 5626 5627 5631 5635 5634 5635 5638 5639 5640 5644 5646 5646 5646 5646 5647 5648 5649 5650 5648 5650 5658 5659 5659 5669 5678 5681 5685 5685 5685 5688 5692 5695 5697 5694 5690 5692 5695 5695 5696 5697 5697 5697 5697 5698 5699 5700 5700 5700 5701 5701 5701 5701 5703 5704 5706 5707 5708 5710 5709 5710 5711 5712 5713 5714 5715 5715 5714 5714 5714 5714 5715 5716 5717 5717 5718 5718 5719 5719 5719 5719 5719 5718 5718
5611 5615 5617 5619 5620 5623 5628 5630 5630 5630 5631 5634 5637 5638 5638 5637 5638 5641 5645 5648 5648 5646 5648 5651 5649 5651 5660 5669 5675 5679 5679 5677 5679 5683 5688 5688 5684 5682 5684 5685 5686 5688 5688 5687 5688 5690 5690 5690 5691 5691 5692 5693 5693 5693 5694 5695 5698 5700 5702 5702 5703 5702 5702 5703 5705 5705 5706 5707 5707 5707 5707 5707 5708 5709 5709 5710 5710 5711 5712 5712 5712 5712 5712 5711 5711 5710
5606 5608 5610 5612 5613 5617 5623 5625 5624 5624 5625 5624 5625 5629 5631 5633 5636 5640 5645 5647 5647 5643 5642 5640 5638 5644 5655 5661 5665 5669 5671 5671 5672 5675 5677 5677 5677 5677 5675 5676 5679 5679 5675 5675 5679 5681 5682 5682 5683 5683 5685 5686 5686 5685 5685 5687 5691 5693 5694 5694 5694 5694 5695 5696 5698 5699 5699 5699 5699 5699 5700 5700 5701 5702 5702 5703 5703 5704 5704 5704 5705 5704 5704 5703 5703 5703
5603 5604 5606 5608 5609 5613 5619 5619 5618 5619 5614 5610 5617 5628 5632 5633 5636 5638 5639 5640 5640 5639 5636 5635 5637 5644 5649 5648 5649 5657 5665 5668 5667 5665 5664 5664 5665 5665 5666 5670 5672 5666 5663 5666 5670 5671 5672 5674 5675 5676 5676 5677 5678 5678 5678 5679 5682 5684 5685 5685 5685 5686 5686 5688 5690 5691 5691 5691 5690 5690 5691 5691 5692 5694 5695 5695 5696 5696 5697 5697 5697 5697 5696 5695 5695 5695
5599 5601 5603 5604 5604 5609 5614 5613 5611 5607 5600 5605 5622 5631 5631 5629 5630 5629 5629 5633 5636 5636 5634 5633 5636 5639 5638 5637 5639 5647 5656 5660 5660 5658 5655 5650 5648 5650 5657 5663 5659 5653 5655 5659 5660 5661 5663 5665 5666 5667 5668 5668 5669 5670 5671 5672 5673 5675 5676 5676 5676 5677 5677 5678 5680 5682 5682 5682 5682 5682 5682 5683 5684 5686 5686 5686 5687 5688 5689 5688 5689 5689 5688 5688 5688 5688
5592 5595 5597 5597 5599 5603 5606 5605 5600 5593 5595 5611 5624 5624 5621 5622 5623 5622 5624 5628 5632 5631 5629 5627 5628 5629 5630 5631 5635 5639 5644 5649 5651 5649 5645 5641 5639 5639 5642 5644 5643 5645 5649 5649 5649 5653 5656 5657 5657 5658 5660 5660 5660 5662 5664 5664 5665 5667 5668 5668 5667 5668 5668 5668 5669 5671 5672 5673 5673 5673 5673 5674 5676 5677 5677 5677 5677 5679 5680 5679 5679 5679 5679 5680 5681 5680
5587 5590 5590 5591 5593 5596 5597 5595 5591 5589 5598 5610 5615 5615 5617 5619 5619 5618 5617 5620 5624 5622 5619 5617 5618 5622 5625 5627 5630 5632 5634 5637 5637 5636 5639 5638 5630 5624 5624 5629 5634 5636 5638 5639 5642 5646 5646 5646 5648 5650 5652 5653 5652 5653 5655 5657 5658 5660 5660 5659 5658 5659 5659 5659 5660 5660 5662 5663 5663 5663 5663 5665 5666 5667 5667 5668 5668 5670 5670 5669 5670 5670 5669 5670 5672 5672
5582 5584 5585 5586 5587 5589 5590 5589 5586 5587 5594 5603 5608 5614 5617 5615 5615 5613 5606 5607 5614 5613 5611 5611 5614 5618 5621 5622 5623 5623 5623 5621 5618 5625 5637 5631 5615 5610 5616 5623 5628 5627 5625 5629 5634 5636 5637 5637 5639 5642 5643 5644 5644 5644 5646 5649 5650 5651 5652 5651 5649 5649 5650 5651 5652 5652 5651 5652 5652 5652 5653 5655 5656 5657 5658 5658 5659 5661 5660 5660 5660 5660 5660 5661 5662 5662
5577 5578 5579 5580 5580 5584 5585 5584 5582 5581 5588 5602 5610 5612 5611 5607 5607 5605 5595 5593 5605 5611 5611 5611 5611 5612 5614 5614 5614 5613 5611 5605 5604 5618 5629 5617 5605 5610 5614 5613 5617 5620 5619 5620 5621 5623 5627 5629 5630 5631 5632 5633 5633 5634 5637 5639 5640 5641 5642 5641 5640 5640 5641 5642 5643 5643 5643 5642 5641 5641 5642 5644 5646 5647 5648 5649 5650 5651 5650 5650 5650 5650 5650 5651 5652 5652
5571 5572 5574 5574 5575 5578 5578 5578 5578 5579 5588 5604 5607 5603 5602 5601 5600 5595 5583 5584 5602 5613 5611 5606 5603 5603 5603 5603 5603 5603 5600 5596 5599 5610 5614 5606 5605 5613 5611 5603 5606 5611 5610 5612 5612 5612 5613 5616 5619 5620 5620 5621 5622 5623 5627 5629 5630 5631 5631 5630 5631 5631 5631 5632 5633 5633 5634 5634 5633 5632 5632 5632 5634 5637 5638 5639 5640 5640 5640 5641 5641 5641 5640 5641 5642 5642
5566 5568 5569 5568 5570 5573 5572 5572 5575 5579 5589 5602 5600 5593 5595 5595 5591 5583 5576 5586 5605 5609 5602 5598 5593 5591 5593 5593 5594 5595 5593 5590 5594 5600 5602 5601 5603 5606 5603 5599 5600 5600 5599 5601 5604 5604 5604 5605 5607 5608 5609 5609 5611 5613 5616 5619 5620 5621 5620 5620 5621 5621 5621 5621 5622 5623 5624 5625 5624 5624 5623 5623 5624 5626 5627 5628 5629 5630 5631 5631 5632 5631 5631 5631 5632 5632
5561 5562 5563 5564 5567 5568 5567 5568 5572 5577 5588 5597 5593 5588 5589 5587 5580 5576 5579 5590 5599 5595 5591 5589 5582 5581 5586 5588 5588 5589 5587 5585 5587 5590 5592 5595 5596 5596 5596 5596 5595 5593 5591 5591 5592 5595 5598 5597 5597 5597 5598 5599 5600 5603 5605 5608 5610 5610 5609 5610 5610 5610 5611 5611 5612 5613 5614 5614 5614 5614 5613 5614 5614 5615 5617 5617 5618 5619 5620 5621 5621 5621 5621 5621 5622 5622
5556 5557 5557 5559 5562 5563 5564 5565 5567 5574 5586 5592 5586 5582 5582 5578 5573 5575 5580 5583 5583 5582 5583 5581 5576 5577 5582 5582 5581 5582 5581 5580 5580 5581 5582 5585 5586 5588 5589 5589 5588 5586 5584 5582 5582 5585 5588 5590 5589 5589 5589 5589 5590 5592 5594 5597 5598 5598 5598 5599 5599 5599 5601 5602 5603 5604 5604 5604 5603 5603 5602 5603 5603 5605 5607 5607 5607 5608 5609 5610 5610 5610 5611 5611 5611 5612
5551 5551 5552 5556 5559 5559 5558 5558 5561 5572 5584 5585 5579 5575 5573 5570 5570 5572 5572 5570 5571 5574 5575 5573 5572 5574 5574 5573 5574 5574 5573 5573 5573 5572 5573 5575 5577 5579 5580 5580 5581 5579 5576 5574 5573 5574 5577 5580 5581 5580 5580 5579 5579 5581 5583 5585 5586 5587 5587 5587 5587 5588 5590 5591 5592 5593 5594 5593 5593 5592 5592 5592 5592 5593 5595 5596 5597 5598 5599 5599 5599 5600 5600 5601 5601 5602
5546 5548 5550 5553 5554 5553 5551 5552 5560 5571 5576 5574 5571 5567 5562 5562 5565 5565 5563 5562 5565 5567 5567 5567 5567 5566 5565 5565 5565 5564 5564 5565 5565 5564 5565 5566 5569 5571 5571 5571 5572 5570 5568 5566 5565 5565 5567 5570 5571 5571 5571 5570 5569 5570 5572 5574 5575 5575 5575 5575 5575 5577 5578 5579 5580 5581 5583 5583 5583 5582 5582 5581 5581 5581 5582 5583 5585 5587 5588 5588 5588 5589 5590 5590 5591 5592
5543 5546 5547 5547 5547 5547 5547 5551 5558 5564 5565 5563 5562 5558 5554 5555 5558 5558 5557 5557 5557 5557 5559 5559 5558 5557 5555 5555 5555 5555 5556 5556 5556 5557 5557 5558 5561 5562 5563 5563 5563 5562 5561 5560 5558 5557 5558 5560 5561 5561 5560 5560 5559 5558 5560 5562 5563 5564 5564 5563 5564 5566 5567 5567 5568 5570 5571 5572 5572 5571 5571 5570 5570 5570 5570 5570 5572 5574 5576 5577 5578 5579 5580 5580 5581 5581
5540 5542 5541 5540 5541 5541 5543 5548 5552 5554 5556 5556 5554 5551 5548 5548 5549 5549 5550 5550 5549 5550 5551 5550 5549 5548 5546 5544 5545 5547 5547 5547 5549 5549 5549 5551 5552 5553 5554 5555 5555 5555 5554 5553 5551 5550 5550 5552 5553 5552 5552 5552 5549 5548 5550 5552 5552 5554 5555 5554 5554 5555 5556 5557 5558 5559 5559 5560 5560 5560 5559 5559 5559 5559 5559 5560 5560 5561 5563 5564 5566 5568 5569 5570 5570 5570
5535 5535 5534 5535 5536 5535 5538 5544 5547 5546 5547 5547 5546 5544 5542 5540 5540 5541 5541 5541 5542 5543 5543 5542 5541 5540 5537 5537 5538 5539 5539 5540 5541 5542 5542 5543 5544 5544 5545 5546 5546 5547 5547 5546 5544 5543 5543 5544 5545 5544 5544 5544 5542 5541 5542 5543 5543 5544 5546 5546 5546 5546 5548 5548 5549 5549 5549 5549 5549 5549 5548 5549 5549 5549 5550 5550 5550 5551 5552 5553 5554 5556 5557 5559 5559 5559
5530 5530 5528 5530 5532 5531 5533 5538 5540 5539 5539 5539 5539 5537 5534 5532 5533 5533 5533 5534 5535 5535 5535 5535 5534 5532 5531 5531 5530 5532 5534 5534 5533 5534 5535 5536 5535 5536 5536 5537 5538 5539 5539 5538 5537 5537 5537 5537 5538 5538 5538 5537 5535 5535 5535 5536 5536 5536 5537 5539 5539 5539 5540 5540 5541 5542 5541 5540 5540 5540 5539 5539 5540 5540 5540 5541 5541 5542 5543 5543 5544 5545 5547 5548 5548 5548
5524 5524 5524 5525 5525 5525 5528 5532 5533 5532 5532 5532 5531 5528 5526 5525 5526 5526 5526 5526 5527 5528 5527 5527 5525 5524 5523 5523 5523 5525 5526 5526 5526 5527 5528 5528 5528 5528 5529 5529 5530 5531 5531 5531 5530 5530 5530 5530 5531 5531 5532 5530 5529 5529 5529 5529 5529 5529 5530 5531 5531 5532 5533 5533 5533 5534 5534 5533 5533 5533 5532 5532 5531 5531 5532 5532 5533 5533 5534 5534 5535 5536 5537 5538 5538 5539
5518 5519 5521 5520 5519 5520 5524 5525 5525 5523 5523 5523 5522 5520 5519 5518 5518 5518 5518 5519 5519 5520 5519 5518 5518 5517 5516 5516 5517 5517 5518 5519 5519 5519 5521 5522 5522 5521 5521 5522 5523 5524 5524 5523 5523 5523 5523 5523 5523 5524 5524 5523 5522 5522 5522 5521 5521 5521 5522 5523 5524 5524 5525 5525 5525 5526 5526 5526 5526 5525 5524 5524 5523 5523 5523 5523 5524 5524 5525 5526 5526 5527 5527 5528 5529 5529
5513 5513 5515 5514 5513 5514 5516 5516 5516 5516 5514 5512 5511 5510 5510 5510 5509 5509 5510 5511 5512 5512 5512 5512 5511 5511 5511 5510 5510 5509 5510 5512 5512 5512 5514 5515 5515 5514 5515 5515 5516 5517 5516 5516 5515 5515 5515 5515 5516 5517 5516 5516 5515 5514 5514 5514 5513 5513 5514 5515 5516 5516 5517 5517 5518 5518 5518 5518 5518 5517 5517 5516 5516 5515 5515 5515 5514 5515 5515 5516 5517 5517 5518 5519 5519 5520